Wind_Speed
81 87 98 87 89 95 107 108 112 103 102 101 97 96 92 84 83 80 75 73 76 73 71 64 61 57 57 58 59 59 59 56 54 52 52 54 55 57 59 56 55 54 56 57
74 77 94 89 90 100 105 101 109 112 108 105 103 97 103 98 89 82 77 78 77 74 70 69 67 64 61 62 65 61 60 59 59 57 58 57 57 58 57 60 62 61 62 62
68 73 81 100 94 95 97 98 106 120 116 113 104 104 106 98 98 94 84 80 82 74 74 71 70 71 70 68 62 63 67 69 70 61 58 59 59 59 62 65 67 69 66 70
75 83 88 90 98 97 98 99 106 119 120 115 108 105 107 104 96 87 85 86 78 75 76 71 71 70 72 72 66 68 67 71 68 62 61 63 61 65 68 71 75 74 73 75
67 76 84 96 98 106 103 100 104 112 119 114 112 108 106 107 101 95 90 84 80 81 82 78 76 76 74 71 74 67 68 70 69 68 68 66 68 68 71 75 78 79 81 82
58 69 82 96 102 105 107 108 104 105 118 119 115 109 106 102 97 101 92 92 93 88 84 80 76 76 74 78 65 64 73 77 76 72 74 73 74 73 73 76 79 85 88 89
57 67 81 91 98 104 103 107 100 105 110 123 115 114 107 103 105 100 99 96 97 93 92 87 82 75 74 69 74 76 78 80 79 76 75 76 79 76 80 79 83 87 89 91
53 65 75 87 102 110 108 101 93 91 96 116 118 114 111 106 108 105 102 100 99 95 92 85 83 84 79 79 83 84 82 81 80 80 82 85 82 77 82 86 88 91 93 93
51 64 78 92 99 106 102 103 98 91 90 91 118 114 110 111 111 106 103 99 98 101 95 89 83 74 75 74 77 81 82 83 83 88 86 86 86 85 91 91 93 93 93 94
54 70 83 95 101 102 106 104 95 91 85 79 95 111 112 105 112 107 103 101 102 102 99 95 91 86 81 83 78 77 79 82 83 84 84 86 88 89 91 93 94 95 98 101
58 75 92 100 102 103 98 100 94 87 87 81 75 97 108 103 100 103 103 103 103 100 96 96 94 93 87 85 86 87 81 80 82 83 85 88 90 93 94 99 102 104 105 107
65 79 90 97 104 103 101 98 98 84 90 80 76 71 99 102 104 101 101 101 102 98 94 92 97 94 95 94 92 91 91 93 95 94 95 96 99 100 102 101 103 107 113 116
69 82 90 98 101 98 93 96 91 95 86 74 69 71 84 100 95 100 100 101 102 105 104 104 100 101 99 100 99 100 99 96 97 98 99 102 104 105 109 109 110 114 117 118
71 84 92 97 100 103 103 92 93 90 86 77 76 81 78 88 92 90 96 103 99 99 102 104 106 105 105 106 105 102 104 105 108 107 108 107 109 112 113 116 119 123 125 124
75 90 89 94 97 104 107 95 88 95 84 80 80 79 76 74 88 91 87 86 93 96 100 103 104 105 101 103 106 107 104 107 108 111 111 113 113 112 114 116 122 124 122 124
75 84 91 94 98 100 111 104 95 91 95 83 81 77 81 75 78 91 88 88 91 91 92 97 101 101 103 104 109 107 108 108 109 109 110 111 113 113 116 118 120 124 125 124
74 82 89 92 99 97 99 108 100 93 94 94 85 83 81 82 82 80 89 91 89 89 93 93 94 96 98 101 101 105 109 106 106 106 106 108 113 118 119 121 125 125 128 132
72 81 88 101 97 102 102 109 99 98 93 85 88 85 82 80 84 89 83 87 89 89 88 89 90 94 98 99 101 102 103 105 108 109 111 115 119 121 124 124 127 131 132 136
68 79 89 101 98 102 108 110 102 102 93 83 83 83 84 84 87 88 91 85 87 88 89 92 97 98 100 102 102 105 107 109 112 115 118 120 122 122 123 127 129 128 129 134
65 77 88 97 102 100 99 111 112 109 103 92 88 91 89 92 95 89 94 90 85 85 87 88 91 96 98 102 104 106 106 110 113 114 116 118 121 124 123 124 127 135 139 138
59 74 83 92 98 101 101 99 113 115 109 98 100 95 96 94 94 94 92 93 94 97 98 98 99 101 99 103 106 108 112 114 116 115 115 114 117 124 128 133 132 130 130 120
50 63 75 86 93 96 98 97 98 109 115 112 100 98 97 95 98 92 88 88 90 92 92 95 99 102 105 109 112 114 115 115 115 119 124 124 128 130 128 126 120 108 99 92
43 53 63 74 84 90 95 95 94 96 100 109 111 114 108 106 105 105 104 98 99 101 102 103 106 108 107 109 113 116 119 122 125 126 129 128 123 115 106 94 89 85 75 66
32 42 53 62 69 77 83 87 88 89 92 102 109 105 106 105 104 103 105 107 110 110 111 112 114 117 119 119 121 123 123 122 116 110 106 100 90 83 80 73 64 63 68 72
23 32 40 50 55 61 66 70 74 78 83 88 92 94 97 97 97 99 102 102 104 106 109 110 110 111 111 110 106 102 99 96 91 84 77 73 65 58 58 62 67 72 77 81
16 23 31 35 42 49 52 57 62 66 70 72 72 70 71 71 74 79 81 84 86 89 90 90 89 87 85 84 82 79 74 69 64 55 47 49 54 59 65 70 75 80 84 89
Wind_Direction
254 240 232 235 232 229 232 230 229 224 225 229 230 232 230 226 227 228 235 239 230 242 236 241 247 247 254 257 258 256 257 260 261 264 266 267 271 275 277 279 280 283 287 292
248 239 231 232 230 229 229 231 227 227 224 224 228 231 232 231 228 229 233 237 237 239 243 246 247 246 251 258 261 257 259 260 263 265 266 266 269 273 276 278 280 282 287 291
243 236 229 227 226 227 226 228 227 225 224 225 226 227 231 230 233 230 231 235 237 239 243 242 248 248 252 255 260 266 267 272 265 263 264 267 270 272 274 276 279 283 287 291
242 236 231 224 224 223 223 220 225 223 220 224 224 225 227 228 231 229 233 235 237 238 242 244 245 248 253 252 260 265 269 271 261 261 264 268 272 276 279 280 281 283 285 288
239 229 221 212 213 217 218 217 222 224 221 221 221 225 226 229 229 229 229 233 234 238 239 244 248 251 255 256 257 260 261 260 262 264 264 269 272 275 277 278 279 282 283 287
232 222 216 212 209 211 213 212 217 221 222 221 221 224 225 229 232 230 231 233 234 238 240 245 248 250 254 255 253 256 261 263 265 269 269 267 271 274 278 279 278 279 282 284
223 217 212 208 206 210 209 212 211 217 224 218 219 223 223 228 229 230 231 233 235 237 240 245 249 250 254 254 254 253 259 264 264 268 268 268 273 276 280 279 280 280 281 286
218 214 209 206 200 206 208 208 206 210 216 223 218 221 222 225 227 231 231 232 235 240 244 247 250 251 256 260 262 262 264 263 264 264 269 271 275 277 275 277 279 280 285 287
209 206 200 199 200 204 203 207 208 212 217 223 223 220 223 223 228 231 234 232 236 239 244 248 248 250 252 258 259 261 260 259 261 266 270 272 274 276 278 279 280 282 283 283
202 200 196 198 199 204 204 208 208 209 212 220 227 222 222 224 227 231 234 237 238 240 245 247 248 251 252 253 258 260 260 262 265 267 269 272 274 275 276 278 282 283 284 284
196 196 193 198 199 200 200 204 203 211 213 217 223 225 222 224 227 231 234 236 238 241 243 244 247 250 254 255 256 259 263 263 265 267 268 270 271 274 276 279 283 286 287 288
194 194 195 196 195 199 202 203 205 208 212 217 223 228 226 224 227 230 233 236 237 240 242 245 248 250 253 257 258 259 260 264 267 266 268 270 273 277 280 282 284 285 288 290
194 195 195 196 198 200 198 201 204 209 210 216 219 216 226 228 228 232 234 236 239 241 242 245 248 251 252 257 260 261 262 264 267 266 269 272 275 277 279 283 285 287 288 291
192 196 195 195 194 193 194 201 204 208 210 215 223 226 225 229 231 233 236 237 239 241 243 245 248 251 253 257 261 263 263 264 267 270 272 276 277 280 282 284 286 288 288 291
195 197 199 201 201 198 201 201 205 209 211 215 219 223 225 227 232 232 234 238 241 242 243 246 248 249 254 258 262 263 266 268 269 270 272 276 279 281 284 286 288 289 290 290
198 197 200 201 204 202 201 201 206 211 215 212 218 221 223 220 223 230 232 237 241 243 246 247 250 254 257 259 261 265 269 270 273 274 275 277 281 282 283 284 285 286 290 290
200 199 200 200 203 203 202 204 208 211 215 217 220 223 229 228 226 226 236 240 242 245 247 250 252 254 256 260 262 264 266 269 272 274 274 275 277 281 283 284 286 288 289 289
201 200 200 200 204 199 202 205 210 213 216 219 222 226 229 233 235 230 231 234 242 246 248 249 253 255 258 260 262 265 268 270 272 274 277 278 280 281 282 283 285 286 287 287
204 202 201 201 207 206 207 207 210 216 216 216 218 223 226 233 237 237 232 235 235 242 249 253 255 255 257 259 261 264 266 270 272 274 275 277 279 280 281 283 285 286 286 288
205 205 205 204 209 210 211 210 212 215 217 215 217 223 227 232 235 238 238 236 239 241 244 247 251 255 259 261 264 268 269 271 274 274 275 276 279 281 283 284 283 286 288 292
205 206 207 209 211 213 215 215 215 216 218 222 225 226 232 236 238 240 243 242 244 246 248 252 255 256 259 260 261 262 265 270 273 277 278 280 282 284 285 288 290 291 291 292
206 209 209 210 213 215 219 218 219 220 224 224 226 231 237 239 241 243 245 247 250 253 256 258 261 262 266 268 268 268 269 272 277 281 284 286 286 287 288 289 289 290 290 290
207 210 212 212 215 216 218 221 222 224 225 228 232 235 236 237 240 244 247 254 257 258 258 259 261 264 266 267 269 272 275 278 281 283 284 286 286 286 288 290 289 290 292 290
203 208 211 215 217 218 220 221 225 227 229 229 231 234 239 242 245 247 250 252 256 259 260 262 264 266 269 271 273 276 279 279 280 282 283 285 288 288 288 291 291 289 290 291
197 202 207 215 218 221 223 224 225 227 230 232 236 239 242 245 247 250 252 254 257 259 261 264 267 270 272 274 276 277 278 280 282 285 286 287 289 289 290 291 294 296 296 295
170 187 198 205 212 218 223 228 231 234 237 239 241 244 247 250 252 253 256 258 260 263 266 269 271 272 273 274 276 279 281 283 284 288 288 289 293 298 300 300 300 301 302 301
Height
10545 10549 10566 10578 10586 10600 10600 10626 10642 10661 10670 10684 10702 10710 10720 10730 10738 10746 10754 10760 10766 10771 10776 10779 10782 10785 10786 10786 10788 10791 10794 10796 10794 10794 10795 10795 10793 10792 10790 10789 10786 10783 10780 10778
10513 10526 10540 10554 10559 10567 10579 10603 10622 10643 10650 10662 10679 10694 10699 10714 10725 10732 10740 10746 10755 10760 10764 10768 10772 10774 10776 10778 10779 10781 10785 10787 10786 10786 10784 10783 10783 10782 10780 10777 10775 10772 10769 10766
10485 10501 10509 10526 10535 10547 10565 10584 10597 10609 10628 10644 10659 10668 10680 10695 10707 10719 10729 10734 10741 10749 10753 10756 10761 10763 10764 10767 10769 10772 10774 10776 10776 10775 10774 10774 10772 10771 10769 10766 10764 10760 10757 10752
10461 10468 10483 10497 10516 10530 10544 10558 10572 10588 10604 10621 10638 10651 10662 10681 10691 10704 10715 10722 10730 10738 10741 10745 10749 10752 10755 10757 10758 10760 10762 10763 10763 10763 10762 10762 10761 10760 10758 10755 10751 10748 10743 10738
10427 10437 10452 10466 10489 10498 10517 10540 10553 10570 10587 10604 10617 10628 10653 10663 10674 10694 10704 10712 10718 10726 10729 10733 10736 10740 10744 10745 10748 10749 10751 10751 10752 10752 10751 10749 10749 10748 10745 10741 10739 10734 10726 10722
10401 10413 10429 10446 10466 10482 10501 10517 10540 10555 10568 10578 10601 10616 10633 10650 10679 10680 10690 10697 10705 10711 10716 10718 10722 10727 10731 10732 10735 10736 10736 10736 10739 10740 10739 10736 10735 10733 10729 10726 10724 10718 10710 10707
10381 10392 10410 10431 10453 10470 10483 10503 10528 10538 10542 10558 10587 10597 10624 10636 10646 10662 10674 10682 10688 10694 10701 10705 10711 10715 10717 10719 10720 10722 10723 10725 10726 10726 10724 10722 10721 10721 10710 10711 10708 10701 10697 10692
10370 10381 10400 10424 10438 10453 10475 10494 10509 10519 10529 10546 10566 10577 10602 10623 10633 10643 10655 10667 10677 10683 10688 10695 10699 10703 10704 10708 10709 10710 10710 10711 10711 10709 10709 10707 10708 10705 10700 10696 10690 10685 10680 10677
10360 10375 10394 10408 10430 10449 10466 10483 10497 10511 10524 10534 10546 10568 10585 10607 10616 10627 10640 10653 10664 10671 10675 10680 10686 10690 10693 10695 10696 10696 10695 10696 10694 10693 10698 10694 10691 10688 10681 10679 10674 10668 10666 10660
10353 10366 10387 10402 10421 10439 10455 10473 10491 10502 10515 10524 10533 10557 10572 10588 10602 10614 10623 10637 10647 10655 10662 10667 10672 10675 10678 10681 10682 10682 10681 10681 10680 10680 10679 10677 10674 10671 10666 10662 10657 10653 10647 10642
10347 10362 10379 10393 10414 10430 10449 10461 10479 10494 10506 10516 10527 10539 10558 10574 10589 10599 10607 10617 10629 10637 10646 10651 10655 10660 10663 10665 10668 10669 10670 10669 10667 10665 10663 10660 10658 10654 10651 10646 10640 10633 10627 10621
10339 10353 10371 10389 10400 10416 10436 10454 10470 10485 10498 10510 10523 10533 10548 10562 10573 10586 10594 10603 10612 10620 10629 10635 10640 10643 10648 10651 10653 10654 10655 10655 10653 10650 10647 10644 10640 10636 10632 10628 10623 10616 10609 10602
10329 10347 10363 10378 10399 10418 10436 10447 10464 10478 10493 10504 10515 10523 10533 10549 10560 10569 10576 10584 10594 10603 10613 10620 10625 10629 10633 10636 10638 10639 10639 10638 10636 10632 10629 10625 10622 10618 10614 10609 10603 10596 10589 10581
10330 10338 10354 10373 10391 10410 10424 10440 10456 10470 10485 10495 10504 10513 10524 10537 10550 10558 10564 10571 10581 10589 10597 10603 10608 10612 10615 10618 10620 10620 10620 10618 10617 10614 10611 10607 10603 10600 10594 10588 10581 10574 10566 10556
10329 10338 10356 10371 10385 10403 10418 10433 10447 10463 10474 10488 10496 10503 10514 10524 10537 10543 10550 10558 10566 10573 10579 10585 10590 10595 10599 10602 10603 10602 10601 10601 10598 10595 10592 10588 10584 10578 10573 10566 10560 10552 10543 10534
10324 10340 10354 10369 10380 10395 10411 10425 10437 10453 10464 10474 10483 10493 10501 10512 10520 10531 10538 10544 10551 10557 10563 10568 10574 10580 10585 10585 10585 10585 10582 10580 10578 10576 10572 10568 10563 10558 10551 10545 10538 10529 10519 10508
10318 10333 10347 10363 10375 10388 10405 10419 10430 10443 10454 10464 10476 10485 10491 10500 10510 10517 10524 10531 10537 10545 10552 10556 10560 10564 10566 10567 10565 10565 10563 10562 10560 10556 10553 10549 10543 10536 10529 10521 10513 10504 10494 10483
10314 10328 10341 10354 10366 10385 10398 10412 10424 10434 10445 10456 10465 10475 10482 10488 10494 10503 10511 10518 10526 10531 10537 10541 10546 10548 10549 10548 10546 10545 10545 10543 10540 10536 10532 10527 10519 10513 10505 10497 10488 10479 10467 10455
10309 10323 10335 10349 10360 10373 10389 10402 10414 10424 10436 10447 10455 10464 10470 10475 10481 10489 10500 10507 10512 10518 10522 10526 10529 10531 10531 10529 10529 10529 10526 10524 10521 10518 10512 10503 10496 10490 10482 10472 10462 10450 10438 10428
10304 10315 10327 10343 10352 10364 10377 10393 10404 10415 10425 10434 10444 10452 10457 10463 10470 10479 10488 10496 10500 10504 10507 10511 10513 10514 10512 10511 10511 10509 10507 10504 10502 10495 10488 10480 10473 10467 10457 10445 10434 10424 10413 10399
10298 10308 10320 10333 10344 10355 10368 10383 10395 10406 10415 10425 10435 10441 10447 10453 10463 10467 10473 10482 10486 10488 10491 10492 10493 10495 10495 10494 10492 10489 10487 10484 10479 10472 10466 10458 10448 10439 10427 10418 10408 10395 10382 10370
10291 10302 10314 10327 10335 10348 10359 10375 10387 10396 10408 10417 10425 10429 10438 10445 10451 10458 10461 10467 10471 10473 10474 10475 10476 10477 10476 10474 10472 10469 10465 10461 10456 10448 10440 10430 10421 10412 10402 10392 10380 10369 10359 10348
10285 10294 10306 10318 10328 10340 10351 10366 10377 10388 10398 10410 10416 10421 10428 10433 10439 10447 10450 10452 10454 10457 10458 10458 10457 10457 10456 10454 10451 10449 10445 10438 10431 10423 10415 10406 10398 10388 10378 10366 10356 10347 10336 10326
10281 10289 10300 10309 10323 10335 10347 10360 10372 10382 10391 10400 10406 10413 10418 10424 10428 10430 10433 10437 10440 10440 10440 10440 10439 10438 10436 10434 10431 10427 10421 10416 10408 10400 10392 10383 10374 10364 10355 10346 10337 10328 10318 10308
10279 10287 10297 10305 10319 10331 10344 10356 10366 10374 10382 10390 10396 10404 10411 10415 10418 10420 10420 10421 10423 10423 10424 10424 10424 10422 10420 10415 10410 10404 10398 10392 10385 10378 10370 10362 10354 10346 10339 10331 10321 10311 10300 10289
10282 10289 10296 10308 10319 10327 10338 10347 10355 10365 10375 10382 10389 10395 10399 10403 10405 10405 10406 10407 10408 10408 10409 10408 10405 10402 10399 10395 10390 10384 10379 10373 10367 10361 10354 10348 10341 10333 10325 10315 10304 10292 10279 10266